Weather History for Garden City, KS

Change the Weather History Date:

Friday, November 9, 2012

  Actual Average Record
Temperature  
Mean Temperature 58 °F 45 °F  
Max Temperature 82 °F 59 °F 82 °F (2012)
Min Temperature 34 °F 31 °F 12 °F (1950)
Degree Days  
Heating Degree Days 7 20  
Month to date heating degree days 110 164  
Since 1 July heating degree days 541 554  
Cooling Degree Days 0 0  
Month to date cooling degree days 0 0  
Year to date cooling degree days 1643 1298  
Growing Degree Days 8 (Base 50)    
Moisture  
Dew Point 33 °F    
Average Humidity 52    
Maximum Humidity 89    
Minimum Humidity 14    
Precipitation  
Precipitation 0.00 in 0.02 in 1.17 in (1972)
Month to date precipitation 0.00 0.19  
Year to date precipitation 12.67 18.59  
Sea Level Pressure  
Sea Level Pressure 29.67 in    
Wind  
Wind Speed 12 mph (South)    
Max Wind Speed 28 mph    
Max Gust Speed 38 mph    
Visibility 10 miles    
Events      
T = Trace of Precipitation, MM = Missing Value Source: NWS Daily Summary

Daily Weather History Graph

Daily Weather History Graph

Search for Another Location

Airport:

Trip Planner

Search our weather history database for the weather conditions in past years. The results will help you decide how hot, cold, wet, or windy it might be!

Date:

Astronomy

Nov. 09, 2012 Rise Set
Actual Time 7:17 AM CST 5:35 PM CST
Civil Twilight 6:49 AM CST 6:03 PM CST
Nautical Twilight 6:18 AM CST 6:34 PM CST
Astronomical Twilight 5:47 AM CST 7:05 PM CST
Moon 2:22 AM CST (11/9) 2:45 PM CST (11/9)
Length of Visible Light 11h 13m
Length of Day
10h 17m
Waning Crescent, 23% of the Moon is Illuminated
Nov 9
Waning Crescent
Nov 13
New
Nov 20
First Quarter
Nov 28
Full
Dec 6
Last Quarter

Hourly Weather History & Observations

Time (CST) Temp. Windchill Dew Point Humidity Pressure Visibility Wind Dir Wind Speed Gust Speed Precip Events Conditions
12:54 AM 43.0 °F 37.7 °F 35.1 °F 74% 29.77 in 10.0 mi East 9.2 mph - N/A   Clear
1:54 AM 41.0 °F 35.8 °F 34.0 °F 76% 29.75 in 10.0 mi SE 8.1 mph - N/A   Clear
2:54 AM 39.0 °F 36.8 °F 34.0 °F 82% 29.75 in 10.0 mi South 3.5 mph - N/A   Clear
3:54 AM 39.0 °F 34.0 °F 34.0 °F 82% 29.74 in 10.0 mi NW 6.9 mph - N/A   Clear
4:54 AM 35.1 °F 30.1 °F 32.0 °F 89% 29.75 in 10.0 mi North 5.8 mph - N/A   Clear
5:54 AM 36.0 °F 30.3 °F 32.0 °F 86% 29.75 in 10.0 mi NNE 6.9 mph - N/A   Clear
6:54 AM 35.1 °F - 30.9 °F 85% 29.75 in 10.0 mi Calm Calm - N/A   Clear
7:54 AM 39.0 °F 35.7 °F 33.1 °F 79% 29.76 in 10.0 mi NE 4.6 mph - N/A   Clear
8:54 AM 46.0 °F 42.5 °F 37.0 °F 71% 29.76 in 10.0 mi East 6.9 mph - N/A   Clear
9:54 AM 52.0 °F - 37.9 °F 59% 29.75 in 10.0 mi ENE 3.5 mph - N/A   Clear
10:54 AM 57.0 °F - 36.0 °F 45% 29.73 in 10.0 mi ESE 4.6 mph - N/A   Clear
11:54 AM 63.0 °F - 34.0 °F 34% 29.68 in 10.0 mi SE 8.1 mph - N/A   Clear
12:54 PM 75.9 °F - 30.9 °F 19% 29.60 in 10.0 mi South 9.2 mph - N/A   Clear
1:54 PM 80.1 °F - 30.0 °F 16% 29.57 in 10.0 mi South 25.3 mph 31.1 mph N/A   Clear
2:54 PM 80.1 °F - 27.0 °F 14% 29.56 in 10.0 mi SSW 25.3 mph 34.5 mph N/A   Partly Cloudy
3:54 PM 80.1 °F - 28.9 °F 15% 29.55 in 10.0 mi SSW 24.2 mph 32.2 mph N/A   Clear
4:54 PM 75.9 °F - 30.0 °F 19% 29.57 in 10.0 mi SSW 17.3 mph - N/A   Clear
5:54 PM 70.0 °F - 30.0 °F 23% 29.59 in 10.0 mi South 15.0 mph - N/A   Clear
6:54 PM 66.9 °F - 28.9 °F 24% 29.60 in 10.0 mi South 15.0 mph - N/A   Clear
7:54 PM 68.0 °F - 30.0 °F 24% 29.60 in 10.0 mi SSW 17.3 mph 25.3 mph N/A   Clear
8:54 PM 64.9 °F - 32.0 °F 29% 29.59 in 10.0 mi South 21.9 mph 28.8 mph N/A   Clear
9:54 PM 64.9 °F - 35.1 °F 33% 29.60 in 10.0 mi SSW 19.6 mph 28.8 mph N/A   Clear
10:54 PM 63.0 °F - 36.0 °F 37% 29.60 in 10.0 mi SW 18.4 mph - N/A   Clear
11:54 PM 60.1 °F - 37.0 °F 42% 29.60 in 10.0 mi SSW 19.6 mph 26.5 mph N/A   Clear